RESURS-P 2 (40360 NORAD) Tracking and Keplerian Element Data

This shows tracking and keplerian element data for the satellite.

Feedback or suggestion? Click here.




ElementValue
Catalog40360
NameRESURS-P 2
Epoch Orbit52966
Epoch Day160.20512158
Epoch Year2024
RAAN246.7109
Inclination97.1517
Eccentricity0.0004759
Argument of Perigee337.528
Mean Anonmoly22.5768
Mean Motion15.58916209
Decay Rate0.00036962
L11 40360U 14087A 24160.20512158 .00036962 00000+0 47651-3 0 9991
L22 40360 97.1517 246.7109 0004759 337.5280 22.5768 15.58916209529661



Live tracking and technical data element details for RESURS-P 2 (NORAD 40360). RESURS-P 2 can be tracked NOW for your location showing map with azimuth and elevation plus other details from your city location.







IsCatalogInMostPopularTable: catalog: 40360, numindb: 645
Update: records affected: 1



GetName: 40360 RESURS-P 2

Hit Count: updated at: Fri, 14 Jun 2024 18:47:04 GMT